Stations météo

réclame
Mon MeteoGroup
St. Athan, Grande-Bretagne (3716): Température de l'air & dewpoint: 12.02.2019 17:00:00 - 18.02.2019 17:00:00 (GMT)St. Athan, Grande-Bretagne (3716): Température de l'air -20cm & Température de l'air -100cm: 12.02.2019 17:00:00 - 18.02.2019 17:00:00 (GMT)St. Athan, Grande-Bretagne (3716): Vitesse du vent: 12.02.2019 17:00:00 - 18.02.2019 17:00:00 (GMT)St. Athan, Grande-Bretagne (3716): Direction du vent: 12.02.2019 17:00:00 - 18.02.2019 17:00:00 (GMT)St. Athan, Grande-Bretagne (3716): reduced air pressure: 12.02.2019 17:00:00 - 18.02.2019 17:00:00 (GMT)St. Athan, Grande-Bretagne (3716): visibility: 12.02.2019 17:00:00 - 18.02.2019 17:00:00 (GMT)St. Athan, Grande-Bretagne (3716): Ensoleillement: 12.02.2019 17:00:00 - 18.02.2019 17:00:00 (GMT)St. Athan, Grande-Bretagne (3716): Quantités de précipitations: 12.02.2019 17:00:00 - 18.02.2019 17:00:00 (GMT)
Date & Time tt [°C] td [°C] tt -20cm [°C] tt -100cm [°C] ff [km/h] ff [knt] dd ppp [hPa] vv [km] sd [min] rr [mm]
18.02.2019 17:00:00 8,4 4,8 - - 24 13 W 1014,2 20 60 -
18.02.2019 16:00:00 9,3 5,0 - - 22 12 WSW 1013,9 10 60 0,0
18.02.2019 15:00:00 9,5 6,1 - - 24 13 W 1013,7 10 42 0,0
18.02.2019 14:00:00 9,3 5,8 - - 22 12 W 1013,7 10 24 0,0
18.02.2019 13:00:00 9,2 6,7 - - 18 10 WSW 1013,8 10 6 0,0
18.02.2019 12:00:00 8,1 5,4 - - 16 9 WSW 1014,0 27 0 0,2
18.02.2019 11:00:00 8,2 6,3 - - 21 11 WSW 1013,7 30 0 0,0
18.02.2019 10:00:00 9,0 6,0 - - 9 5 SW 1013,6 23 0 0,0
18.02.2019 09:00:00 9,0 6,0 7,5 7,7 15 8 SSW 1013,5 22 0 0,0
18.02.2019 08:00:00 8,5 5,9 - - 11 6 SSW 1013,4 21 0 0,0
18.02.2019 07:00:00 8,6 5,8 - - 11 6 SSW 1012,9 23 0 0,0
18.02.2019 06:00:00 8,8 5,7 - - 11 6 S 1012,7 24 0 0,0
18.02.2019 05:00:00 8,1 6,0 - - 8 4 SSW 1012,8 16 0 0,0
18.02.2019 04:00:00 8,7 6,1 - - 9 5 S 1012,9 20 0 0,0
18.02.2019 03:00:00 8,6 6,0 - - 9 5 S 1013,2 17 0 0,0
18.02.2019 02:00:00 9,6 6,0 - - 11 6 SW 1013,5 21 0 0,0
18.02.2019 01:00:00 8,7 6,1 - - 5 3 S 1013,9 17 0 0,0
18.02.2019 00:00:00 8,8 5,9 - - 9 5 SSW 1013,8 17 - 0,0
17.02.2019 23:00:00 8,8 6,2 - - 9 5 S 1014,0 18 0 0,0
17.02.2019 22:00:00 8,8 6,1 - - 13 7 S 1013,5 20 0 0,0
17.02.2019 21:00:00 9,1 5,8 - - 13 7 S 1013,3 19 0 0,0
17.02.2019 20:00:00 9,6 5,7 - - 16 9 SSW 1013,3 21 0 0,0
17.02.2019 19:00:00 9,2 5,0 - - 11 6 SSW 1013,1 24 0 0,0
17.02.2019 18:00:00 10,1 4,4 - - 21 11 SSW 1012,6 30 0 0,0
17.02.2019 17:00:00 10,3 5,6 - - 16 9 SSW 1012,0 27 30 0,0
17.02.2019 16:00:00 12,0 6,8 - - 15 8 SW 1011,8 30 24 0,0
17.02.2019 15:00:00 11,1 7,0 - - 9 5 WSW 1012,0 27 0 0,0
17.02.2019 14:00:00 11,7 6,8 - - 11 6 SW 1011,9 35 6 0,0
17.02.2019 13:00:00 10,9 6,9 - - 11 6 SW 1012,1 35 0 0,0
17.02.2019 12:00:00 9,9 8,0 - - 11 6 S 1012,0 17 0 -
17.02.2019 11:00:00 9,5 7,8 - - 11 6 S 1012,0 11 0 -
17.02.2019 10:00:00 10,1 7,4 - - 18 10 SSW 1011,3 16 0 0,0
17.02.2019 09:00:00 9,6 6,8 7,2 7,7 18 10 SSW 1011,4 16 0 0,0
17.02.2019 08:00:00 9,0 5,5 - - 11 6 E 1011,1 18 0 0,0
17.02.2019 07:00:00 9,6 5,0 - - 15 8 SE 1010,9 20 0 0,0
17.02.2019 06:00:00 9,9 4,7 - - 15 8 SSE 1011,4 21 0 0,0
17.02.2019 05:00:00 8,6 5,2 - - 18 10 ESE 1012,2 15 0 0,0
17.02.2019 04:00:00 8,5 5,6 - - 16 9 E 1012,6 14 0 0,0
17.02.2019 03:00:00 8,4 5,8 - - 15 8 ESE 1013,8 11 0 0,0
17.02.2019 02:00:00 9,1 7,1 - - 15 8 SE 1014,7 11 0 0,0
17.02.2019 01:00:00 8,5 7,4 - - 16 9 ESE 1015,3 8 0 0,0
17.02.2019 00:00:00 8,5 7,6 - - 16 9 E 1016,6 11 - 0,0
16.02.2019 23:00:00 8,8 7,5 - - 16 9 SSE 1017,3 20 0 0,0
16.02.2019 22:00:00 9,7 7,8 - - 16 9 ESE 1018,1 21 0 0,0
16.02.2019 21:00:00 10,2 7,9 - - 16 9 ESE 1018,7 25 0 0,0
16.02.2019 20:00:00 9,7 7,9 - - 16 9 ESE 1018,9 20 0 0,0
16.02.2019 19:00:00 9,9 8,7 - - 11 6 E 1019,1 20 0 0,0
16.02.2019 18:00:00 10,2 8,8 - - 15 8 SSE 1018,9 19 0 0,0
16.02.2019 17:00:00 10,3 8,8 - - 11 6 SSE 1018,7 21 0 0,0
16.02.2019 16:00:00 12,1 8,9 - - 11 6 SSW 1019,0 35 0 0,0
16.02.2019 15:00:00 12,7 9,6 - - 13 7 SSW 1019,4 45 0 0,0
16.02.2019 14:00:00 12,5 9,6 - - 11 6 SSW 1020,1 35 0 0,0
16.02.2019 13:00:00 10,5 8,4 - - 8 4 SSE 1021,0 24 0 0,0
16.02.2019 12:00:00 11,2 7,8 - - 4 2 SSE 1021,5 35 0 0,0
16.02.2019 11:00:00 10,8 7,8 - - 8 4 S 1021,6 35 0 0,0
16.02.2019 10:00:00 10,9 7,3 - - 13 7 SSW 1021,5 35 24 0,0
16.02.2019 09:00:00 9,4 7,5 6,7 7,7 8 4 SW 1021,5 24 24 0,0
16.02.2019 08:00:00 7,7 6,7 - - 13 7 WSW 1021,4 15 0 0,0
16.02.2019 07:00:00 8,4 7,2 - - 11 6 W 1020,9 13 0 0,0
16.02.2019 06:00:00 9,7 8,1 - - 16 9 W 1021,0 15 0 0,0
16.02.2019 05:00:00 9,8 8,9 - - 16 9 W 1021,0 13 0 0,0
16.02.2019 04:00:00 9,3 8,9 - - 9 5 W 1021,1 5 0 0,2
16.02.2019 03:00:00 7,8 7,2 - - 5 3 ESE 1021,1 2,2 0 0,0
16.02.2019 02:00:00 8,5 7,7 - - 8 4 ESE 1021,3 3,6 0 0,0
16.02.2019 01:00:00 8,7 7,5 - - 11 6 SSE 1021,4 5 0 0,0
16.02.2019 00:00:00 8,2 7,0 - - 9 5 ESE 1021,9 7 - 0,0
15.02.2019 23:00:00 8,9 8,0 - - 8 4 SSE 1022,0 11 0 0,0
15.02.2019 22:00:00 7,4 6,0 - - 5 3 SE 1022,6 7 0 0,0
15.02.2019 21:00:00 7,4 6,0 - - 13 7 SE 1022,1 11 0 0,0
15.02.2019 20:00:00 7,5 5,3 - - 5 3 E 1022,9 12 0 0,0
15.02.2019 19:00:00 9,5 6,5 - - 8 4 SE 1022,7 19 0 0,0
15.02.2019 18:00:00 9,2 6,1 - - 13 7 SE 1022,4 18 0 0,0
15.02.2019 17:00:00 10,7 6,1 - - 13 7 ESE 1022,2 24 54 0,0
15.02.2019 16:00:00 12,5 6,1 - - 13 7 ESE 1022,5 10 60 0,0
15.02.2019 15:00:00 13,1 7,7 - - 18 10 ESE 1022,8 10 60 0,0
15.02.2019 14:00:00 12,1 8,3 - - 21 11 ESE 1023,5 10 60 0,0
15.02.2019 13:00:00 11,1 7,9 - - 16 9 E 1024,6 13 60 0,0
15.02.2019 12:00:00 9,9 7,3 - - 16 9 E 1025,3 10 60 0,0
15.02.2019 11:00:00 8,7 6,9 - - 18 10 ESE 1025,6 6 60 0,0
15.02.2019 10:00:00 7,1 6,6 - - 16 9 E 1025,7 3,3 24 0,0
15.02.2019 09:00:00 4,6 4,3 6,7 7,7 16 9 E 1026,1 3,5 30 0,0
15.02.2019 08:00:00 3,0 2,8 - - 9 5 ENE 1026,4 2,3 0 0,0
15.02.2019 07:00:00 2,9 2,5 - - 13 7 ENE 1026,1 1,9 0 0,0
15.02.2019 06:00:00 2,3 2,0 - - 11 6 E 1026,1 1,2 0 0,0
15.02.2019 05:00:00 2,7 2,4 - - 16 9 E 1026,2 1,4 0 0,0
15.02.2019 04:00:00 2,5 1,9 - - 13 7 E 1026,6 1,5 0 0,0
15.02.2019 03:00:00 3,5 2,8 - - 13 7 NE 1027,0 2,7 0 0,0
15.02.2019 02:00:00 3,5 2,9 - - 16 9 E 1027,2 3,0 0 0,0
15.02.2019 01:00:00 3,1 2,1 - - 11 6 E 1027,6 4,3 0 0,0
15.02.2019 00:00:00 3,1 2,2 - - 15 8 ENE 1027,6 4,8 - 0,0
14.02.2019 23:00:00 3,4 2,4 - - 13 7 E 1028,0 5 0 0,0
14.02.2019 22:00:00 4,6 3,2 - - 13 7 E 1028,3 10 0 0,0
14.02.2019 21:00:00 5,4 3,1 - - 13 7 E 1028,3 16 0 0,0
14.02.2019 20:00:00 4,1 1,7 - - 9 5 E 1028,6 18 0 0,0
14.02.2019 19:00:00 6,8 2,7 - - 13 7 E 1028,4 30 0 0,0
14.02.2019 18:00:00 7,9 2,8 - - 18 10 ESE 1028,4 35 18 0,0
14.02.2019 17:00:00 9,2 4,0 - - 16 9 ESE 1028,3 29 60 0,0
14.02.2019 16:00:00 10,6 5,6 - - 18 10 ESE 1028,4 25 60 0,0
14.02.2019 15:00:00 10,9 6,4 - - 16 9 ESE 1028,9 10 60 0,0
14.02.2019 14:00:00 10,1 6,8 - - 18 10 E 1029,4 13 60 0,0
14.02.2019 13:00:00 8,8 7,3 - - 18 10 E 1030,2 9 42 0,0
14.02.2019 12:00:00 6,1 5,9 - - 18 10 E 1031,0 3,0 6 0,0
14.02.2019 11:00:00 5,3 5,2 - - 15 8 E 1031,2 0,1 0 0,0
14.02.2019 10:00:00 4,8 4,7 - - 18 10 E 1031,3 0,1 0 0,0
14.02.2019 09:00:00 5,4 5,3 6,7 7,7 16 9 E 1031,1 0,5 0 0,0
14.02.2019 08:00:00 4,9 4,7 - - 13 7 E 1031,1 - 0 0,2
14.02.2019 07:00:00 5,0 4,9 - - 15 8 ESE 1030,8 - 0 0,0
14.02.2019 06:00:00 2,5 2,2 - - 9 5 E 1030,8 0,1 0 0,0
14.02.2019 05:00:00 2,6 2,4 - - 13 7 E 1030,8 0,8 0 0,0
14.02.2019 04:00:00 3,2 2,8 - - 9 5 E 1031,1 1,4 0 0,0
14.02.2019 03:00:00 3,7 3,2 - - 11 6 ENE 1031,3 1,1 0 0,0
14.02.2019 02:00:00 4,5 3,9 - - 9 5 E 1031,5 1,9 0 0,0
14.02.2019 01:00:00 4,9 3,7 - - 8 4 ESE 1031,6 5 0 0,0
14.02.2019 00:00:00 6,4 5,6 - - 13 7 E 1031,5 9 - 0,0
13.02.2019 23:00:00 6,3 5,2 - - 5 3 SE 1031,3 8 0 0,0
13.02.2019 22:00:00 5,9 5,2 - - 8 4 SE 1031,2 8 0 0,0
13.02.2019 21:00:00 6,2 5,2 - - 11 6 SSE 1030,9 8 0 0,0
13.02.2019 20:00:00 6,4 5,2 - - 8 4 SE 1030,6 10 0 0,0
13.02.2019 19:00:00 7,4 5,6 - - 9 5 SE 1030,4 18 0 0,0
13.02.2019 18:00:00 7,8 5,8 - - 13 7 S 1030,1 18 0 0,0
13.02.2019 17:00:00 9,1 6,1 - - 11 6 SE 1029,9 10 36 0,0
13.02.2019 16:00:00 10,3 6,6 - - 11 6 SE 1030,1 26 60 0,0
13.02.2019 15:00:00 11,1 6,4 - - 13 7 ESE 1030,2 26 36 0,0
13.02.2019 14:00:00 11,0 5,4 - - - - - 1031,1 30 - 0,0
13.02.2019 13:00:00 10,7 5,2 - - 5 3 SE 1031,0 28 60 0,0
13.02.2019 12:00:00 10,6 5,7 - - 5 3 S 1031,6 40 54 0,0
13.02.2019 11:00:00 8,7 5,5 - - 9 5 SSW 1031,7 10 18 0,0
13.02.2019 10:00:00 8,0 5,6 - - 11 6 S 1031,2 18 0 0,0
13.02.2019 09:00:00 7,0 5,8 6,7 7,7 9 5 SSE 1031,2 10 0 0,0
13.02.2019 08:00:00 6,8 5,4 - - 11 6 SE 1031,3 18 0 0,0
13.02.2019 07:00:00 6,0 4,7 - - 9 5 SSE 1031,2 9 0 0,0
13.02.2019 06:00:00 5,5 3,4 - - 5 3 S 1031,3 24 0 0,0
13.02.2019 05:00:00 6,2 4,4 - - 5 3 SSE 1031,6 27 0 0,0
13.02.2019 04:00:00 8,3 5,3 - - 8 4 SSW 1031,7 40 0 0,0
13.02.2019 03:00:00 8,1 6,1 - - 5 3 SSW 1032,2 30 0 0,0
13.02.2019 02:00:00 8,0 6,1 - - 2 1 SSW 1032,6 21 0 0,0
13.02.2019 01:00:00 8,3 6,3 - - 4 2 SW 1032,6 30 0 0,0
13.02.2019 00:00:00 7,6 5,9 - - 4 2 WSW 1032,6 17 - 0,0
12.02.2019 23:00:00 8,0 6,9 - - 5 3 SSW 1032,6 17 0 0,0
12.02.2019 22:00:00 7,7 6,7 - - 5 3 ESE 1032,7 14 0 0,0
12.02.2019 21:00:00 7,8 6,8 - - 4 2 SSE 1032,7 10 0 0,0
12.02.2019 20:00:00 8,3 7,4 - - 8 4 SSE 1032,7 18 0 0,0
12.02.2019 19:00:00 8,2 7,5 - - 4 2 ENE 1032,8 8 0 0,0
12.02.2019 18:00:00 8,4 7,2 - - 5 3 ESE 1032,5 15 0 0,0
12.02.2019 17:00:00 9,0 6,9 - - 4 2 S 1032,4 30 0 0,0

tt = Température de l'air
td = dewpoint
tt -20cm = Température de l'air -20cm
tt -100cm = Température de l'air -100cm
ff = Vitesse du vent
dd = Direction du vent
ppp = reduced air pressure
vv = visibility
sd = Ensoleillement
rr = Quantités de précipitations

stations d'obs. à proximité